Location: Strawberry
(45.6646°N, 111.9596°W)
Time: 13:51:54
(UTC+00:00)

Tiangong - Pass Details

Date: 25 August 2022
Orbit: 377 x 382 km, 41.5° (Epoch: 27 September)

Event Time Altitude Azimuth Distance (km) Brightness Sun altitude
Rises 03:56:29 0° 267° (W) 2,241 2.6 -16.0°
Reaches altitude 10° 03:58:59 10° 247° (WSW) 1,386 1.1 -16.4°
Maximum altitude 04:01:09 18° 203° (SSW) 1,024 -0.1 -16.7°
Enters shadow 04:01:19 17° 198° (SSW) 1,026 -0.2 -16.7°
